Flag for India Weather past 2 weeks in Karaikudi, Tamil Nadu, India

Now
84 °F

Passing clouds.


Feels Like: 87 °F
Forecast: 79 / 94 °F
Wind: 12 mph from West

Location: Tiruchchirapalli

Current Time: Aug 30, 2014 at 12:00:56 AM

Latest Report: Aug 29, 2014 at 11:10 PM


Visibility: 4 mi

Pressure: 29.71 "Hg

Humidity: 58%

Dew point: 68 °F

Location of KaraikudiLocation

Historic Weather in Karaikudi — Graph

°F

Karaikudi temperature yesterday

Maximum temperature yesterday: 95 °F (at 1:10 PM)
Minimum temperature yesterday: 79 °F (at 5:40 AM)
Average temperature yesterday: 86 °F

Past Weeks' High & Low Weather Summary

 TemperatureHumidityPressure
High102 °F (Aug 16, 3:40 PM)100% (Aug 18, 8:40 PM)29.89 "Hg (Aug 18, 8:40 PM)
Low73 °F (Aug 18, 8:40 PM)35% (Aug 15, 3:40 PM)29.59 "Hg (Aug 21, 3:40 PM)
Average86 °F66%29.74 "Hg
* Reported Aug 14 10:40 PM — Aug 29 10:40 PM, Karaikudi, Weather by CustomWeather, © 2014

Note: Actual official high and low records may vary slightly from our data, if they occured in-between our weather recording intervals... More about our weather records

Advertising

Karaikudi weather history for previous 24 hours

 ConditionsComfort  
Time TempWeatherWind HumidityBarometerVisibility
10:40 PM
Aug 29
84 °FPassing clouds.10 mph58%29.71 "Hg4 mi
10:10 PM84 °FPassing clouds.13 mph58%29.71 "Hg4 mi
9:40 PM86 °FPartly cloudy.13 mph55%29.71 "Hg4 mi
9:10 PM86 °FPartly cloudy.12 mph52%29.71 "Hg4 mi
8:40 PM86 °FPartly cloudy.10 mph52%29.68 "Hg4 mi
8:10 PM88 °FPassing clouds.12 mph55%29.68 "Hg4 mi
7:40 PM90 °FPartly cloudy.12 mph55%29.68 "Hg4 mi
7:10 PM90 °FPartly cloudy.16 mph55%29.65 "Hg4 mi
6:40 PM90 °FBroken clouds.9 mph55%29.65 "Hg4 mi
6:10 PM90 °FBroken clouds.13 mph55%29.62 "Hg4 mi
5:40 PM91 °FBroken clouds.8 mph52%29.62 "Hg4 mi
5:10 PM90 °FBroken clouds.6 mph52%29.62 "Hg4 mi
4:40 PM90 °FBroken clouds.10 mph52%29.62 "Hg4 mi
4:10 PM91 °FBroken clouds.6 mph49%29.62 "Hg5 mi
3:40 PM91 °FBroken clouds.5 mph49%29.62 "Hg5 mi
3:10 PM93 °FBroken clouds.6 mph47%29.62 "Hg5 mi
2:40 PM93 °FBroken clouds.9 mph44%29.62 "Hg5 mi
2:10 PM93 °FBroken clouds.9 mph44%29.62 "Hg5 mi
1:40 PM95 °FScattered clouds.10 mph41%29.62 "Hg5 mi
1:10 PM95 °FScattered clouds.14 mph41%29.65 "Hg5 mi
12:40 PM93 °FScattered clouds.7 mph44%29.68 "Hg5 mi
12:10 PM93 °FScattered clouds.10 mph47%29.68 "Hg5 mi
11:40 AM91 °FScattered clouds.16 mph49%29.71 "Hg5 mi
11:10 AM90 °FScattered clouds.20 mph52%29.71 "Hg5 mi
10:40 AM88 °FScattered clouds.18 mph59%29.74 "Hg4 mi
10:10 AM86 °FScattered clouds.14 mph62%29.74 "Hg4 mi
9:40 AM86 °FScattered clouds.13 mph62%29.74 "Hg4 mi
9:10 AM84 °FBroken clouds.12 mph66%29.74 "Hg4 mi
8:40 AM82 °FBroken clouds.5 mph70%29.74 "Hg4 mi
8:10 AM82 °FBroken clouds.7 mph62%29.74 "Hg4 mi
7:40 AM81 °FBroken clouds.6 mph66%29.74 "Hg3 mi
7:10 AM81 °FBroken clouds.No wind66%29.71 "Hg3 mi
6:40 AM81 °FBroken clouds.No wind66%29.71 "Hg3 mi
6:10 AM79 °FPartly cloudy.2 mph70%29.71 "Hg3 mi
5:40 AM79 °FPartly cloudy.5 mph70%29.71 "Hg3 mi
5:10 AM81 °FPassing clouds.7 mph70%29.68 "Hg3 mi
4:40 AM81 °FPassing clouds.3 mph74%29.68 "Hg3 mi
4:10 AM81 °FPassing clouds.7 mph74%29.68 "Hg3 mi
3:40 AM81 °FPassing clouds.7 mph84%29.68 "Hg3 mi
3:10 AM81 °FPassing clouds.7 mph74%29.68 "Hg4 mi
2:40 AM81 °FPassing clouds.9 mph74%29.68 "Hg4 mi
1:10 AM82 °FPassing clouds.12 mph62%29.71 "Hg4 mi
12:40 AM82 °FPassing clouds.13 mph62%29.71 "Hg4 mi
12:10 AM82 °FPassing clouds.12 mph62%29.74 "Hg4 mi
Weather by CustomWeather, © 2014

See weather overviewHow to use our weather pages